{"data":{"norad_id":53899,"intl_designator":"2022-119P","name":"STARLINK-5042","alt_names":[],"object_type":"PAYLOAD","status":"ACTIVE","operator":null,"country":"US","launch_date":"2022-09-24","launch_site_code":"AFETR","launch_vehicle":null,"mission":null,"orbit_class":"UNKNOWN","rcs_meters":null,"size_class":null,"mass_kg":null,"dimensions":null,"purposes":["comms"],"wikipedia_slug":null,"has_3d_model":false,"image_url":null,"decayed_at":null,"tle_current":{"epoch":"2026-07-06T23:04:46.031232Z","epoch_age_seconds":6610665,"freshness":"OLD","line1":"1 53899U 22119P   26187.96164388  .08719353  12340-4  35325-3 0  9999","line2":"2 53899  53.1997 107.6983 0012204 246.1434 113.8337 16.42666189210263","mean_motion":16.42666189,"eccentricity":0.0012204,"inclination_deg":53.1997,"raan_deg":107.6983,"arg_perigee_deg":246.1434,"mean_anomaly_deg":113.8337,"bstar":0.00035325,"rev_number":21026,"period_min":87.662363153443,"perigee_km":150.74209039915,"apogee_km":166.69725015997,"semimajor_km":6536.8566702796,"source":"CELESTRAK","updated_at":"2026-07-07T09:00:50.046497Z"}}}